Regional Weather Roundup
Issued by NWS Raleigh/Durham, NC

Home | Current Version | Previous Version | Text Only | Print | Product List | Glossary On
Versions: 1 2 3 4 5 6 7 8 9 10 11 12 13 14 15 16 17 18 19 20 21 22 23 24 25 26 27 28 29 30 31 32 33 34 35 36 37 38 39 40 41 42 43 44 45 46 47 48 49 50
000
ASUS42 KRAH 252010
RWRRAH
NORTH CAROLINA WEATHER ROUNDUP
NATIONAL WEATHER SERVICE RALEIGH NC
400 PM EDT SAT MAR 25 2017

NOTE: "FAIR" INDICATES FEW OR NO CLOUDS BELOW 12,000 FEET WITH NO
SIGNIFICANT WEATHER AND/OR OBSTRUCTIONS TO VISIBILITY.

NCZ001-053-055-056-065-067-252100-
WESTERN NORTH CAROLINA

CITY           SKY/WX    TMP DP  RH WIND       PRES   REMARKS
ASHEVILLE      CLOUDY    67  45  45 S10       30.22F
JEFFERSON      MOSUNNY   64  46  51 SE6       30.22F
MORGANTON      MOSUNNY   71  46  39 SW7       30.25F
HICKORY        MOSUNNY   70  48  45 S8        30.21F
RUTHERFORDTON  PTSUNNY   71  48  43 S13G20    30.22F
MOUNT AIRY     MOSUNNY   71  51  50 S6G17     30.22F
BOONE          MOSUNNY   64  45  49 S7G16     30.24F
$$

NCZ021-022-025-041-071-084-088-252100-
CENTRAL NORTH CAROLINA

CITY           SKY/WX    TMP DP  RH WIND       PRES   REMARKS
CHARLOTTE      PTSUNNY   74  47  38 SW10G20   30.22F
GREENSBORO     CLOUDY    72  49  44 SW13      30.21F
WINSTON-SALEM  MOSUNNY   71  46  40 SW12G20   30.22F
RALEIGH-DURHAM PTSUNNY   74  48  39 SW20      30.22F
FORT BRAGG     MOSUNNY   76  48  36 SW10G17   30.22F
FAYETTEVILLE   PTSUNNY   76  49  38 SW12      30.23F
BURLINGTON     PTSUNNY   76  49  38 VRB5      30.20F
LAURINBURG     NOT AVBL
$$

NCZ011-015-027-028-043-044-047-080-103-252100-
NORTHEASTERN NORTH CAROLINA

CITY           SKY/WX    TMP DP  RH WIND       PRES   REMARKS
ROCKY MT-WILSO MOSUNNY   75  51  43 SW12      30.22F
GREENVILLE     PTSUNNY   75  50  41 SW9G16    30.24F
WASHINGTON     MOSUNNY   75  52  43 SW14G20   30.24F
ELIZABETH CITY MOSUNNY   74  50  42 SW16      30.22F
MANTEO         CLOUDY    65  52  61 S15       30.25F
CAPE HATTERAS  CLOUDY    69  55  60 SW12      30.28F
$$

NCZ078-087-090-091-093-098-101-252100-
SOUTHEASTERN NORTH CAROLINA

CITY           SKY/WX    TMP DP  RH WIND       PRES   REMARKS
LUMBERTON      MOSUNNY   75  49  39 SW13      30.23F
GOLDSBORO      MOSUNNY   76  48  37 SW14      30.23S
KINSTON        PTSUNNY   75  50  41 SW14G21   30.25F
KENANSVILLE    CLOUDY    73  50  43 SW9       30.25F
NEW BERN       MOSUNNY   76  51  41 S14       30.26F
CHERRY POINT   SUNNY     73  50  44 S20G28    30.28F
BEAUFORT       SUNNY     72  54  53 SW13      30.29F
JACKSONVILLE   PTSUNNY   72  53  51 S16G24    30.26F
WILMINGTON     CLOUDY    73  51  46 S9G20     30.27F
$$




USA.gov is the U.S. government's official web portal to all federal, state and local government web resources and services.